Location: Rometta
(44.2000°N, 10.0500°E)
Time: 23:32:24
(UTC+00:00)

Cosmos 1818 - Visible Passes

Search period start: 14 May 2021 00:00
Search period end: 24 May 2021 00:00
Orbit: 772 x 802 km, 65.0° (Epoch: 14 May)

Date Brightness Start Highest point End Pass type
(mag) Time Alt. Az. Time Alt. Az. Time Alt. Az.
14 May 5.9 19:10:27 10° N 19:13:00 13° NNE 19:15:33 10° NE visible
14 May 4.3 20:52:45 10° NNW 20:58:01 45° NE 21:00:27 28° ESE visible
14 May 4.7 22:36:37 10° NW 22:41:05 32° WSW 22:41:05 32° WSW visible
15 May 4.7 20:20:49 10° NNW 20:25:51 35° NE 20:29:16 18° E visible
15 May 4.1 22:04:21 10° NW 22:09:31 43° WSW 22:09:54 43° SW visible
16 May 5.0 19:48:55 10° NNW 19:53:38 28° NE 19:58:08 11° E visible
16 May 3.8 21:32:10 10° NW 21:37:34 59° WSW 21:38:46 47° SSW visible
17 May 5.3 19:17:04 10° NNW 19:21:23 23° NE 19:25:40 10° E visible
17 May 3.6 21:00:04 10° NW 21:05:34 79° WSW 21:07:40 39° SSE visible
17 May 5.8 22:46:23 10° W 22:48:13 12° WSW 22:48:18 12° WSW visible
18 May 3.6 20:28:01 10° NNW 20:33:32 79° NE 20:36:36 27° SE visible
18 May 5.5 22:13:04 10° WNW 22:16:25 17° WSW 22:17:15 16° WSW visible
19 May 3.9 19:56:01 10° NNW 20:01:27 60° NE 20:05:35 17° SE visible
19 May 5.2 21:40:23 10° WNW 21:44:36 23° WSW 21:46:14 20° SW visible
20 May 4.2 19:24:03 10° NNW 19:29:20 46° NE 19:34:34 10° ESE visible
20 May 4.8 21:07:57 10° NW 21:12:43 31° WSW 21:15:15 21° SSW visible
21 May 4.4 20:35:40 10° NW 20:40:49 42° WSW 20:44:20 19° S visible
22 May 4.0 20:03:29 10° NW 20:08:52 58° WSW 20:13:27 14° SSE visible
23 May 3.7 19:31:22 10° NW 19:36:53 78° WSW 19:42:18 10° SSE visible
23 May 6.0 21:17:51 10° W 21:19:30 11° WSW 21:21:10 10° WSW visible
